FW2200 Weather Reports


time (UTC)temp
F
wind
direction
speed
knots
gust
knots
rain 1hr
in
rain 24hr
in
rain mn
in
humidity
%
barometer
mb
20260505153055 63 354 0.0 0.9 0.00 1.32 1.32 92 1006.8
20260505151558 62 19 0.0 0.9 0.00 1.32 1.32 92 1006.8
20260505124548 61 339 0.0 0.9 0.00 1.32 1.32 92 1006.8
20260505123059 61 326 0.0 0.9 0.00 1.32 1.32 92 1006.7
20260505121547 61 206 0.0 0.9 0.00 1.32 1.32 92 1006.5
20260505120048 61 251 0.0 1.7 0.00 1.32 1.32 92 1006.4
20260505114546 60 158 0.0 0.0 0.00 1.32 1.32 92 1006.3
20260505113048 60 154 0.0 0.0 0.01 1.32 1.32 92 1006.2
20260505111545 60 151 0.0 0.9 0.01 1.32 1.32 92 1006.1
20260505101543 60 14 0.0 0.0 0.00 1.31 1.31 92 1006.9
20260505100044 60 27 0.0 0.9 0.01 1.31 1.31 91 1007.1
20260505094544 60 27 0.0 0.0 0.03 1.31 1.31 91 1007.2
20260505093042 60 27 0.0 0.0 0.08 1.31 1.31 91 1007.1
20260505091548 60 57 0.0 0.0 0.20 1.31 1.31 91 1007.4
20260505090043 60 63 0.0 0.9 0.26 1.30 1.30 91 1007.3
20260505084540 60 343 0.0 0.0 0.26 1.28 1.28 91 1007.5
20260505083040 60 335 0.0 1.7 0.24 1.23 1.23 91 1008.0
20260505081540 59 281 0.0 0.9 0.64 1.09 1.09 90 1006.6
20260505080036 59 48 0.0 0.0 0.74 1.04 1.04 90 1006.9
20260505074534 60 47 0.0 0.9 0.87 1.02 1.02 89 1007.1
20260505073034 61 45 0.0 2.6 0.89 0.99 0.99 89 1007.5
20260505071529 62 344 0.9 6.1 0.36 0.44 0.44 89 1008.6
20260505070026 62 34 0.0 1.7 0.23 0.30 0.30 87 1006.6
20260505064524 62 97 0.0 0.9 0.13 0.15 0.15 86 1006.9
20260505063021 63 98 0.0 0.0 0.09 0.09 0.09 84 1007.0
20260505061516 64 338 0.0 0.9 0.08 0.08 0.08 80 1006.8
20260505060013 65 328 0.0 4.3 0.07 0.07 0.07 78 1007.1
20260505054509 67 201 0.9 5.2 0.01 0.01 0.01 73 1007.6
20260505053007 67 187 0.0 1.7 0.00 0.00 0.00 70 1007.5
20260505051518 67 141 0.0 1.7 0.00 0.00 0.00 69 1007.5
20260505041606 66 196 0.0 3.5 0.00 0.00 0.00 71 1007.5
20260505040107 66 208 0.0 1.7 0.00 0.00 0.00 71 1007.7
20260505034559 66 229 0.0 0.9 0.00 0.00 0.00 71 1007.8
20260505033059 66 251 0.0 2.6 0.00 0.00 0.00 71 1008.1
20260505031600 66 243 0.0 0.9 0.00 0.00 0.00 71 1008.1
20260505030057 67 269 0.0 0.9 0.00 0.00 0.00 70 1008.1
20260505024557 67 187 0.0 0.0 0.00 0.00 0.00 69 1008.1
20260505023156 68 187 0.0 0.0 0.00 0.00 0.00 67 1008.0
20260505021554 69 187 0.0 0.0 0.00 0.00 0.00 66 1008.0
20260505014555 70 154 0.0 1.7 0.00 0.00 0.00 64 1007.6
20260505013102 71 170 0.0 2.6 0.00 0.00 0.00 62 1007.4
20260505011554 72 156 0.0 1.7 0.00 0.00 0.00 61 1007.2
20260505010108 72 231 0.0 2.6 0.00 0.00 0.00 60 1007.0
20260505004551 73 227 0.0 2.6 0.00 0.00 0.00 58 1006.9
20260505003055 74 160 0.9 4.3 0.00 0.00 0.00 56 1006.9
20260505001550 75 165 0.0 5.2 0.00 0.00 0.00 55 1006.8
20260505000049 76 256 1.7 7.8 0.00 0.00 0.00 53 1006.9
20260504234548 77 199 0.9 7.0 0.00 0.00 0.00 52 1006.8
20260504233104 77 203 3.5 10.4 0.00 0.00 0.00 51 1006.7
20260504231548 78 153 3.5 8.7 0.00 0.00 0.00 50 1006.7
20260504230054 78 239 2.6 13.0 0.00 0.00 0.00 49 1006.7
20260504224550 80 170 2.6 9.6 0.00 0.00 0.00 47 1006.7
20260504223045 80 149 2.6 9.6 0.00 0.00 0.00 47 1006.6
20260504221543 81 177 3.5 7.8 0.00 0.00 0.00 46 1006.8
20260504220042 81 231 2.6 7.0 0.00 0.00 0.00 47 1006.8
20260504214539 81 259 1.7 9.6 0.00 0.00 0.00 46 1007.1
20260504213039 81 132 0.9 8.7 0.00 0.00 0.00 48 1007.1
20260504211538 80 237 3.5 9.6 0.00 0.00 0.00 45 1007.4
20260504210042 80 7 3.5 10.4 0.00 0.00 0.00 47 1007.6
20260504204536 81 170 2.6 9.6 0.00 0.00 0.00 47 1007.7
20260504203049 81 163 3.5 12.2 0.00 0.00 0.00 46 1007.9
20260504201532 80 173 4.3 14.8 0.00 0.00 0.00 48 1007.9
20260504200029 80 241 5.2 13.0 0.00 0.00 0.00 47 1008.1
20260504194530 80 187 3.5 11.3 0.00 0.00 0.00 47 1008.2
20260504193026 79 244 5.2 19.1 0.00 0.00 0.00 47 1008.5
20260504191526 80 175 3.5 11.3 0.00 0.00 0.00 48 1008.7
20260504190022 80 163 1.7 9.6 0.00 0.00 0.00 50 1008.8
20260504184518 79 213 3.5 12.2 0.00 0.00 0.00 49 1009.0
20260504183016 78 130 3.5 13.9 0.00 0.00 0.00 51 1009.2
20260504181513 78 148 3.5 14.8 0.00 0.00 0.00 50 1009.4
20260504180011 77 162 4.3 17.4 0.00 0.00 0.00 51 1009.6
20260504174508 77 156 3.5 12.2 0.00 0.00 0.00 49 1009.9
20260504173008 76 194 2.6 8.7 0.00 0.00 0.00 51 1009.9
20260504171503 75 199 5.2 13.9 0.00 0.00 0.00 50 1010.2